| time (UTC) | temp C | wind direction | speed KPH | gust KPH | rain 1hr cm | rain 24hr cm | rain mn cm | humidity % | barometer mb |
| 20260510234525 | 30 | 329 | 8.0 | 17.7 | 0.00 | 0.00 | 0.00 | 60 | 1016.3 |
| 20260510234006 | 31 | 285 | 8.0 | 17.7 | 0.00 | 0.00 | 0.00 | 60 | 1016.1 |
| 20260510233510 | 31 | 348 | 4.8 | 16.1 | 0.00 | 0.00 | 0.00 | 59 | 1016.1 |
| 20260510233006 | 31 | 269 | 4.8 | 16.1 | 0.00 | 0.00 | 0.00 | 58 | 1016.0 |
| 20260510232506 | 31 | 308 | 4.8 | 12.9 | 0.00 | 0.00 | 0.00 | 57 | 1015.9 |
| 20260510232004 | 31 | 311 | 4.8 | 17.7 | 0.00 | 0.00 | 0.00 | 56 | 1015.8 |
| 20260510231510 | 32 | 294 | 4.8 | 17.7 | 0.00 | 0.00 | 0.00 | 55 | 1015.7 |
| 20260510231004 | 32 | 256 | 4.8 | 17.7 | 0.00 | 0.00 | 0.00 | 54 | 1015.7 |
| 20260510230505 | 32 | 292 | 8.0 | 17.7 | 0.00 | 0.00 | 0.00 | 53 | 1015.7 |
| 20260510230023 | 32 | 250 | 9.7 | 17.7 | 0.00 | 0.00 | 0.00 | 52 | 1015.5 |
| 20260510225506 | 32 | 311 | 4.8 | 17.7 | 0.00 | 0.00 | 0.00 | 50 | 1015.6 |
| 20260510224513 | 33 | 300 | 4.8 | 16.1 | 0.00 | 0.00 | 0.00 | 49 | 1015.5 |
| 20260510224010 | 33 | 290 | 4.8 | 19.3 | 0.00 | 0.00 | 0.00 | 49 | 1015.5 |
| 20260510223510 | 33 | 261 | 8.0 | 19.3 | 0.00 | 0.00 | 0.00 | 49 | 1015.4 |
| 20260510223013 | 33 | 246 | 4.8 | 17.7 | 0.00 | 0.00 | 0.00 | 50 | 1015.4 |
| 20260510222505 | 33 | 269 | 8.0 | 22.5 | 0.00 | 0.00 | 0.00 | 50 | 1015.4 |
| 20260510221514 | 33 | 259 | 12.9 | 24.1 | 0.00 | 0.00 | 0.00 | 50 | 1015.4 |
| 20260510221009 | 33 | 216 | 9.7 | 22.5 | 0.00 | 0.00 | 0.00 | 50 | 1015.3 |
| 20260510220505 | 33 | 244 | 8.0 | 22.5 | 0.00 | 0.00 | 0.00 | 50 | 1015.4 |
| 20260510220016 | 33 | 272 | 6.4 | 24.1 | 0.00 | 0.00 | 0.00 | 49 | 1015.4 |
| 20260510215508 | 34 | 238 | 9.7 | 24.1 | 0.00 | 0.00 | 0.00 | 49 | 1015.4 |
| 20260510215009 | 35 | 276 | 11.3 | 22.5 | 0.00 | 0.00 | 0.00 | 47 | 1015.4 |
| 20260510214517 | 35 | 323 | 9.7 | 22.5 | 0.00 | 0.00 | 0.00 | 47 | 1015.4 |
| 20260510214012 | 35 | 294 | 9.7 | 22.5 | 0.00 | 0.00 | 0.00 | 46 | 1015.4 |
| 20260510213505 | 35 | 257 | 4.8 | 22.5 | 0.00 | 0.00 | 0.00 | 48 | 1015.4 |
| 20260510213022 | 35 | 281 | 8.0 | 22.5 | 0.00 | 0.00 | 0.00 | 47 | 1015.4 |
| 20260510212510 | 35 | 315 | 6.4 | 19.3 | 0.00 | 0.00 | 0.00 | 46 | 1015.4 |
| 20260510212008 | 35 | 282 | 9.7 | 22.5 | 0.00 | 0.00 | 0.00 | 47 | 1015.5 |
| 20260510211519 | 35 | 288 | 11.3 | 22.5 | 0.00 | 0.00 | 0.00 | 48 | 1015.6 |
| 20260510211009 | 35 | 344 | 6.4 | 20.9 | 0.00 | 0.00 | 0.00 | 46 | 1015.5 |
| 20260510210504 | 35 | 327 | 8.0 | 20.9 | 0.00 | 0.00 | 0.00 | 46 | 1015.5 |
| 20260510210014 | 35 | 292 | 6.4 | 22.5 | 0.00 | 0.00 | 0.00 | 46 | 1015.5 |
| 20260510205506 | 35 | 210 | 11.3 | 22.5 | 0.00 | 0.00 | 0.00 | 46 | 1015.6 |
| 20260510205006 | 36 | 298 | 12.9 | 22.5 | 0.00 | 0.00 | 0.00 | 45 | 1015.6 |
| 20260510204514 | 36 | 257 | 8.0 | 20.9 | 0.00 | 0.00 | 0.00 | 47 | 1015.6 |
| 20260510204009 | 36 | 266 | 12.9 | 20.9 | 0.00 | 0.00 | 0.00 | 45 | 1015.6 |
| 20260510203507 | 36 | 286 | 6.4 | 24.1 | 0.00 | 0.00 | 0.00 | 48 | 1015.6 |
| 20260510203019 | 36 | 240 | 9.7 | 29.0 | 0.00 | 0.00 | 0.00 | 47 | 1015.7 |
| 20260510202506 | 35 | 228 | 14.5 | 29.0 | 0.00 | 0.00 | 0.00 | 47 | 1015.7 |
| 20260510202009 | 35 | 278 | 12.9 | 24.1 | 0.00 | 0.00 | 0.00 | 48 | 1015.6 |
| 20260510201523 | 35 | 288 | 9.7 | 24.1 | 0.00 | 0.00 | 0.00 | 49 | 1015.7 |
| 20260510200508 | 34 | 317 | 8.0 | 19.3 | 0.00 | 0.00 | 0.00 | 49 | 1015.6 |
| 20260510200024 | 34 | 309 | 9.7 | 19.3 | 0.00 | 0.00 | 0.00 | 48 | 1015.6 |
| 20260510195503 | 34 | 257 | 8.0 | 19.3 | 0.00 | 0.00 | 0.00 | 49 | 1015.6 |
| 20260510195007 | 35 | 280 | 4.8 | 22.5 | 0.00 | 0.00 | 0.00 | 48 | 1015.6 |
| 20260510194519 | 35 | 236 | 11.3 | 22.5 | 0.00 | 0.00 | 0.00 | 48 | 1015.6 |
| 20260510194008 | 35 | 231 | 9.7 | 20.9 | 0.00 | 0.00 | 0.00 | 47 | 1015.6 |
| 20260510193020 | 36 | 242 | 3.2 | 19.3 | 0.00 | 0.00 | 0.00 | 48 | 1015.6 |
| 20260510192508 | 35 | 257 | 8.0 | 19.3 | 0.00 | 0.00 | 0.00 | 50 | 1015.7 |
| 20260510192007 | 35 | 261 | 8.0 | 17.7 | 0.00 | 0.00 | 0.00 | 50 | 1015.6 |
| 20260510191517 | 35 | 211 | 6.4 | 19.3 | 0.00 | 0.00 | 0.00 | 52 | 1015.7 |
| 20260510191010 | 35 | 246 | 9.7 | 19.3 | 0.00 | 0.00 | 0.00 | 51 | 1015.8 |
| 20260510190516 | 34 | 246 | 4.8 | 12.9 | 0.00 | 0.00 | 0.00 | 50 | 1015.8 |
| 20260510190031 | 34 | 294 | 4.8 | 14.5 | 0.00 | 0.00 | 0.00 | 50 | 1015.9 |
| 20260510185509 | 34 | 295 | 6.4 | 19.3 | 0.00 | 0.00 | 0.00 | 51 | 1015.9 |
| 20260510185007 | 34 | 257 | 8.0 | 20.9 | 0.00 | 0.00 | 0.00 | 51 | 1015.9 |
| 20260510184534 | 34 | 259 | 9.7 | 20.9 | 0.00 | 0.00 | 0.00 | 49 | 1016.0 |
| 20260510184007 | 35 | 226 | 11.3 | 19.3 | 0.00 | 0.00 | 0.00 | 49 | 1015.9 |
| 20260510183508 | 35 | 302 | 6.4 | 14.5 | 0.00 | 0.00 | 0.00 | 50 | 1016.0 |
| 20260510183019 | 34 | 186 | 9.7 | 17.7 | 0.00 | 0.00 | 0.00 | 50 | 1016.1 |
| 20260510182508 | 34 | 234 | 8.0 | 17.7 | 0.00 | 0.00 | 0.00 | 50 | 1016.3 |
| 20260510182013 | 34 | 253 | 6.4 | 14.5 | 0.00 | 0.00 | 0.00 | 48 | 1016.2 |
| 20260510181520 | 34 | 197 | 4.8 | 14.5 | 0.00 | 0.00 | 0.00 | 50 | 1016.2 |
| 20260510181010 | 35 | 263 | 8.0 | 14.5 | 0.00 | 0.00 | 0.00 | 50 | 1016.3 |
| 20260510180021 | 35 | 268 | 3.2 | 12.9 | 0.00 | 0.00 | 0.00 | 49 | 1016.5 |
| 20260510175510 | 35 | 266 | 6.4 | 16.1 | 0.00 | 0.00 | 0.00 | 50 | 1016.7 |
| 20260510175009 | 35 | 274 | 6.4 | 19.3 | 0.00 | 0.00 | 0.00 | 50 | 1016.7 |
| 20260510174519 | 35 | 254 | 9.7 | 19.3 | 0.00 | 0.00 | 0.00 | 51 | 1016.8 |
| 20260510174011 | 34 | 234 | 4.8 | 16.1 | 0.00 | 0.00 | 0.00 | 52 | 1016.9 |
| 20260510173511 | 33 | 188 | 1.6 | 16.1 | 0.00 | 0.00 | 0.00 | 51 | 1016.8 |
| 20260510173014 | 34 | 232 | 8.0 | 16.1 | 0.00 | 0.00 | 0.00 | 50 | 1017.1 |
| 20260510172509 | 34 | 230 | 3.2 | 12.9 | 0.00 | 0.00 | 0.00 | 50 | 1017.2 |
| 20260510172008 | 35 | 157 | 4.8 | 12.9 | 0.00 | 0.00 | 0.00 | 50 | 1017.2 |
| 20260510171519 | 35 | 215 | 6.4 | 19.3 | 0.00 | 0.00 | 0.00 | 49 | 1017.2 |
| 20260510170510 | 35 | 250 | 9.7 | 17.7 | 0.00 | 0.00 | 0.00 | 52 | 1017.1 |
| 20260510170024 | 35 | 194 | 4.8 | 20.9 | 0.00 | 0.00 | 0.00 | 51 | 1017.2 |
| 20260510165508 | 35 | 244 | 11.3 | 20.9 | 0.00 | 0.00 | 0.00 | 49 | 1017.4 |
| 20260510165008 | 34 | 249 | 8.0 | 20.9 | 0.00 | 0.00 | 0.00 | 56 | 1017.4 |
| 20260510164525 | 33 | 249 | 8.0 | 17.7 | 0.00 | 0.00 | 0.00 | 56 | 1017.4 |
| 20260510164014 | 33 | 277 | 8.0 | 17.7 | 0.00 | 0.00 | 0.00 | 57 | 1017.6 |
| 20260510163508 | 32 | 201 | 4.8 | 14.5 | 0.00 | 0.00 | 0.00 | 56 | 1017.5 |
| 20260510163024 | 32 | 271 | 8.0 | 22.5 | 0.00 | 0.00 | 0.00 | 60 | 1017.6 |
| 20260510162510 | 31 | 211 | 8.0 | 22.5 | 0.00 | 0.00 | 0.00 | 61 | 1017.7 |
| 20260510162009 | 31 | 184 | 3.2 | 16.1 | 0.00 | 0.00 | 0.00 | 61 | 1017.6 |
| 20260510161519 | 31 | 181 | 8.0 | 16.1 | 0.00 | 0.00 | 0.00 | 62 | 1017.7 |
| 20260510161009 | 31 | 207 | 3.2 | 12.9 | 0.00 | 0.00 | 0.00 | 66 | 1017.6 |
| 20260510160508 | 30 | 247 | 4.8 | 12.9 | 0.00 | 0.00 | 0.00 | 72 | 1017.6 |
| 20260510160020 | 29 | 251 | 4.8 | 14.5 | 0.00 | 0.00 | 0.00 | 71 | 1017.6 |
| 20260510155507 | 28 | 163 | 4.8 | 16.1 | 0.00 | 0.00 | 0.00 | 75 | 1017.5 |
| 20260510155012 | 28 | 213 | 6.4 | 17.7 | 0.00 | 0.00 | 0.00 | 72 | 1017.6 |
| 20260510154524 | 28 | 152 | 6.4 | 17.7 | 0.00 | 0.00 | 0.00 | 74 | 1017.6 |
| 20260510154008 | 28 | 202 | 9.7 | 17.7 | 0.00 | 0.00 | 0.00 | 75 | 1017.6 |
| 20260510153508 | 27 | 228 | 11.3 | 17.7 | 0.00 | 0.00 | 0.00 | 77 | 1017.6 |
| 20260510153025 | 27 | 191 | 9.7 | 14.5 | 0.00 | 0.00 | 0.00 | 79 | 1017.7 |
| 20260510152508 | 27 | 189 | 6.4 | 17.7 | 0.00 | 0.00 | 0.00 | 75 | 1017.6 |
| 20260510152010 | 28 | 215 | 12.9 | 17.7 | 0.00 | 0.00 | 0.00 | 78 | 1017.6 |
| 20260510151526 | 28 | 185 | 9.7 | 16.1 | 0.00 | 0.00 | 0.00 | 77 | 1017.7 |
| 20260510151013 | 28 | 251 | 9.7 | 17.7 | 0.00 | 0.00 | 0.00 | 78 | 1017.8 |
| 20260510150508 | 29 | 199 | 9.7 | 17.7 | 0.00 | 0.00 | 0.00 | 74 | 1017.8 |
| 20260510150023 | 31 | 274 | 9.7 | 24.1 | 0.00 | 0.00 | 0.00 | 57 | 1017.7 |
| 20260510145513 | 31 | 217 | 11.3 | 24.1 | 0.00 | 0.00 | 0.00 | 59 | 1017.7 |
| 20260510145007 | 31 | 263 | 9.7 | 17.7 | 0.00 | 0.00 | 0.00 | 59 | 1017.7 |
| 20260510144527 | 30 | 194 | 4.8 | 17.7 | 0.00 | 0.00 | 0.00 | 65 | 1017.7 |
| 20260510144012 | 30 | 216 | 9.7 | 17.7 | 0.00 | 0.00 | 0.00 | 64 | 1017.7 |
| 20260510143509 | 30 | 175 | 6.4 | 17.7 | 0.00 | 0.00 | 0.00 | 69 | 1017.6 |
| 20260510143028 | 29 | 202 | 9.7 | 17.7 | 0.00 | 0.00 | 0.00 | 68 | 1017.7 |
| 20260510142511 | 28 | 243 | 6.4 | 14.5 | 0.00 | 0.00 | 0.00 | 70 | 1017.7 |
| 20260510142011 | 28 | 223 | 6.4 | 14.5 | 0.00 | 0.00 | 0.00 | 72 | 1017.6 |
| 20260510141528 | 28 | 206 | 6.4 | 14.5 | 0.00 | 0.00 | 0.00 | 74 | 1017.6 |
| 20260510141012 | 28 | 189 | 4.8 | 12.9 | 0.00 | 0.00 | 0.00 | 73 | 1017.8 |
| 20260510140510 | 27 | 197 | 3.2 | 11.3 | 0.00 | 0.00 | 0.00 | 74 | 1017.6 |
| 20260510140024 | 27 | 216 | 3.2 | 11.3 | 0.00 | 0.00 | 0.00 | 75 | 1017.7 |
| 20260510140016 | 27 | 216 | 4.8 | 11.3 | 0.00 | 0.00 | 0.00 | 75 | 1017.7 |
| 20260510135508 | 27 | 215 | 4.8 | 11.3 | 0.00 | 0.00 | 0.00 | 75 | 1017.7 |
| 20260510135009 | 27 | 205 | 6.4 | 11.3 | 0.00 | 0.00 | 0.00 | 76 | 1017.8 |
| 20260510134514 | 27 | 193 | 1.6 | 11.3 | 0.00 | 0.00 | 0.00 | 77 | 1017.7 |
| 20260510134007 | 27 | 198 | 4.8 | 9.7 | 0.00 | 0.00 | 0.00 | 78 | 1017.7 |
| 20260510133508 | 26 | 182 | 4.8 | 8.0 | 0.00 | 0.00 | 0.00 | 79 | 1017.6 |
| 20260510133024 | 26 | 200 | 3.2 | 6.4 | 0.00 | 0.00 | 0.00 | 80 | 1017.5 |
| 20260510132507 | 26 | 177 | 1.6 | 8.0 | 0.00 | 0.00 | 0.00 | 81 | 1017.5 |
| 20260510132010 | 26 | 196 | 3.2 | 8.0 | 0.00 | 0.00 | 0.00 | 82 | 1017.4 |
| 20260510131524 | 26 | 196 | 1.6 | 8.0 | 0.00 | 0.00 | 0.00 | 83 | 1017.5 |
| 20260510131011 | 25 | 192 | 0.0 | 6.4 | 0.00 | 0.00 | 0.00 | 84 | 1017.5 |
| 20260510130506 | 25 | 189 | 0.0 | 8.0 | 0.00 | 0.00 | 0.00 | 84 | 1017.4 |
| 20260510130016 | 25 | 153 | 0.0 | 8.0 | 0.00 | 0.00 | 0.00 | 85 | 1017.4 |
| 20260510124521 | 24 | 171 | 1.6 | 6.4 | 0.00 | 0.00 | 0.00 | 87 | 1017.4 |
| 20260510124009 | 24 | 172 | 1.6 | 6.4 | 0.00 | 0.00 | 0.00 | 87 | 1017.4 |
| 20260510123507 | 24 | 184 | 1.6 | 6.4 | 0.00 | 0.00 | 0.00 | 87 | 1017.4 |
| 20260510123017 | 23 | 151 | 0.0 | 3.2 | 0.00 | 0.00 | 0.00 | 87 | 1017.4 |
| 20260510122509 | 23 | 142 | 0.0 | 0.0 | 0.00 | 0.00 | 0.00 | 87 | 1017.2 |
| 20260510122010 | 23 | 142 | 0.0 | 0.0 | 0.00 | 0.00 | 0.00 | 88 | 1017.1 |
| 20260510121516 | 23 | 141 | 0.0 | 0.0 | 0.00 | 0.00 | 0.00 | 88 | 1017.1 |
| 20260510121007 | 23 | 141 | 0.0 | 0.0 | 0.00 | 0.00 | 0.00 | 89 | 1017.1 |
| 20260510120508 | 23 | 141 | 0.0 | 0.0 | 0.00 | 0.00 | 0.00 | 89 | 1017.0 |
| 20260510120028 | 23 | 141 | 0.0 | 0.0 | 0.00 | 0.00 | 0.00 | 90 | 1016.8 |
| 20260510115511 | 23 | 141 | 0.0 | 0.0 | 0.00 | 0.00 | 0.00 | 90 | 1016.8 |
| 20260510115007 | 23 | 317 | 0.0 | 0.0 | 0.00 | 0.00 | 0.00 | 90 | 1016.8 |
| 20260510114522 | 22 | 317 | 0.0 | 0.0 | 0.00 | 0.00 | 0.00 | 90 | 1016.7 |
| 20260510114007 | 22 | 317 | 0.0 | 3.2 | 0.00 | 0.00 | 0.00 | 91 | 1016.6 |
| 20260510113507 | 22 | 316 | 0.0 | 3.2 | 0.00 | 0.00 | 0.00 | 91 | 1016.5 |
| 20260510113030 | 22 | 317 | 1.6 | 3.2 | 0.00 | 0.00 | 0.00 | 92 | 1016.3 |
| 20260510112512 | 22 | 317 | 0.0 | 3.2 | 0.00 | 0.00 | 0.00 | 92 | 1016.2 |
| 20260510112009 | 22 | 317 | 0.0 | 3.2 | 0.00 | 0.00 | 0.00 | 92 | 1016.0 |
| 20260510111526 | 22 | 317 | 1.6 | 3.2 | 0.00 | 0.00 | 0.00 | 92 | 1016.0 |
| 20260510111012 | 22 | 316 | 0.0 | 0.0 | 0.00 | 0.00 | 0.00 | 92 | 1015.9 |
| 20260510110509 | 22 | 185 | 0.0 | 0.0 | 0.00 | 0.00 | 0.00 | 92 | 1015.8 |
| 20260510110030 | 22 | 171 | 0.0 | 0.0 | 0.00 | 0.00 | 0.00 | 92 | 1015.7 |
| 20260510105504 | 22 | 171 | 0.0 | 1.6 | 0.00 | 0.00 | 0.00 | 92 | 1015.5 |
| 20260510105004 | 22 | 171 | 0.0 | 1.6 | 0.00 | 0.00 | 0.00 | 92 | 1015.3 |
| 20260510104517 | 22 | 171 | 0.0 | 1.6 | 0.00 | 0.00 | 0.00 | 92 | 1015.1 |
| 20260510104003 | 22 | 171 | 0.0 | 3.2 | 0.00 | 0.00 | 0.00 | 92 | 1015.0 |
| 20260510103504 | 22 | 171 | 0.0 | 3.2 | 0.00 | 0.00 | 0.00 | 92 | 1014.9 |
| 20260510103021 | 22 | 173 | 0.0 | 3.2 | 0.00 | 0.00 | 0.00 | 92 | 1014.9 |
| 20260510102507 | 22 | 173 | 0.0 | 3.2 | 0.00 | 0.00 | 0.00 | 92 | 1015.0 |
| 20260510102004 | 22 | 173 | 0.0 | 4.8 | 0.00 | 0.00 | 0.00 | 92 | 1015.2 |
| 20260510101506 | 22 | 173 | 0.0 | 4.8 | 0.00 | 0.00 | 0.00 | 92 | 1015.0 |
| 20260510101004 | 22 | 163 | 1.6 | 3.2 | 0.00 | 0.00 | 0.00 | 91 | 1014.9 |
| 20260510100503 | 22 | 163 | 0.0 | 6.4 | 0.00 | 0.00 | 0.00 | 91 | 1014.6 |
| 20260510100014 | 22 | 163 | 0.0 | 6.4 | 0.00 | 0.00 | 0.00 | 91 | 1014.4 |
| 20260510095505 | 22 | 173 | 0.0 | 3.2 | 0.00 | 0.00 | 0.00 | 91 | 1014.3 |
| 20260510095003 | 22 | 174 | 0.0 | 0.0 | 0.00 | 0.00 | 0.00 | 90 | 1014.6 |
| 20260510094508 | 22 | 174 | 0.0 | 1.6 | 0.00 | 0.00 | 0.00 | 91 | 1014.6 |
| 20260510094008 | 22 | 174 | 0.0 | 3.2 | 0.00 | 0.00 | 0.00 | 91 | 1014.7 |
| 20260510093507 | 22 | 174 | 0.0 | 4.8 | 0.00 | 0.00 | 0.00 | 91 | 1014.6 |
| 20260510093005 | 22 | 178 | 0.0 | 6.4 | 0.00 | 0.00 | 0.00 | 91 | 1014.6 |
| 20260510092504 | 22 | 180 | 1.6 | 6.4 | 0.00 | 0.00 | 0.00 | 91 | 1014.5 |
| 20260510092007 | 22 | 171 | 0.0 | 6.4 | 0.00 | 0.00 | 0.00 | 90 | 1014.4 |
| 20260510091505 | 22 | 171 | 0.0 | 6.4 | 0.00 | 0.00 | 0.00 | 90 | 1014.3 |
| 20260510091004 | 22 | 175 | 0.0 | 0.0 | 0.00 | 0.00 | 0.00 | 90 | 1014.4 |
| 20260510090504 | 22 | 175 | 0.0 | 1.6 | 0.00 | 0.00 | 0.00 | 90 | 1014.5 |
| 20260510085505 | 22 | 173 | 0.0 | 3.2 | 0.00 | 0.00 | 0.00 | 90 | 1014.4 |
| 20260510085002 | 22 | 173 | 0.0 | 3.2 | 0.00 | 0.00 | 0.00 | 90 | 1014.4 |
| 20260510084521 | 22 | 173 | 0.0 | 3.2 | 0.00 | 0.00 | 0.00 | 90 | 1014.3 |
| 20260510084007 | 22 | 173 | 0.0 | 6.4 | 0.00 | 0.00 | 0.00 | 90 | 1014.3 |
| 20260510083505 | 22 | 173 | 0.0 | 6.4 | 0.00 | 0.00 | 0.00 | 90 | 1014.4 |
| 20260510083017 | 22 | 174 | 1.6 | 6.4 | 0.00 | 0.00 | 0.00 | 90 | 1014.4 |
| 20260510082508 | 22 | 153 | 3.2 | 8.0 | 0.00 | 0.00 | 0.00 | 90 | 1014.5 |
| 20260510082007 | 22 | 176 | 0.0 | 8.0 | 0.00 | 0.00 | 0.00 | 90 | 1014.6 |
| 20260510081513 | 22 | 162 | 0.0 | 3.2 | 0.00 | 0.00 | 0.00 | 90 | 1014.5 |
| 20260510081007 | 22 | 155 | 0.0 | 6.4 | 0.00 | 0.00 | 0.00 | 89 | 1014.5 |
| 20260510080509 | 22 | 155 | 0.0 | 6.4 | 0.00 | 0.00 | 0.00 | 90 | 1014.5 |
| 20260510080007 | 22 | 163 | 1.6 | 6.4 | 0.00 | 0.00 | 0.00 | 89 | 1014.7 |
| 20260510075507 | 22 | 171 | 0.0 | 6.4 | 0.00 | 0.00 | 0.00 | 89 | 1014.8 |
| 20260510075009 | 22 | 169 | 1.6 | 6.4 | 0.00 | 0.00 | 0.00 | 89 | 1014.8 |
| 20260510074512 | 22 | 153 | 1.6 | 6.4 | 0.00 | 0.00 | 0.00 | 89 | 1014.9 |
| 20260510074003 | 22 | 115 | 0.0 | 3.2 | 0.00 | 0.00 | 0.00 | 89 | 1014.8 |
| 20260510073503 | 22 | 106 | 0.0 | 3.2 | 0.00 | 0.00 | 0.00 | 89 | 1014.8 |
| 20260510073018 | 22 | 93 | 0.0 | 3.2 | 0.00 | 0.00 | 0.00 | 88 | 1014.9 |
| 20260510072504 | 22 | 69 | 0.0 | 1.6 | 0.00 | 0.00 | 0.00 | 88 | 1015.0 |
| 20260510072008 | 22 | 5 | 0.0 | 0.0 | 0.00 | 0.00 | 0.00 | 88 | 1015.1 |
| 20260510071523 | 23 | 5 | 0.0 | 0.0 | 0.00 | 0.00 | 0.00 | 88 | 1015.1 |
| 20260510071007 | 23 | 5 | 0.0 | 0.0 | 0.00 | 0.00 | 0.00 | 87 | 1015.0 |
| 20260510070503 | 23 | 5 | 0.0 | 0.0 | 0.00 | 0.00 | 0.00 | 87 | 1014.9 |
| 20260510070019 | 23 | 5 | 0.0 | 0.0 | 0.00 | 0.00 | 0.00 | 87 | 1014.9 |
| 20260510065514 | 23 | 5 | 0.0 | 0.0 | 0.00 | 0.00 | 0.00 | 87 | 1015.0 |
| 20260510065005 | 23 | 5 | 0.0 | 3.2 | 0.00 | 0.00 | 0.00 | 87 | 1015.1 |
| 20260510064511 | 23 | 5 | 0.0 | 3.2 | 0.00 | 0.00 | 0.00 | 87 | 1015.1 |
| 20260510064006 | 23 | 5 | 1.6 | 3.2 | 0.00 | 0.00 | 0.00 | 88 | 1015.1 |
| 20260510063509 | 23 | 123 | 0.0 | 0.0 | 0.00 | 0.00 | 0.00 | 87 | 1015.1 |
| 20260510063013 | 23 | 123 | 0.0 | 0.0 | 0.00 | 0.00 | 0.00 | 87 | 1015.2 |
| 20260510062508 | 23 | 123 | 0.0 | 0.0 | 0.00 | 0.00 | 0.00 | 87 | 1015.1 |
| 20260510062008 | 23 | 123 | 0.0 | 0.0 | 0.00 | 0.00 | 0.00 | 86 | 1015.2 |
| 20260510061511 | 23 | 123 | 0.0 | 0.0 | 0.00 | 0.00 | 0.00 | 86 | 1015.2 |
| 20260510061004 | 23 | 123 | 0.0 | 3.2 | 0.00 | 0.00 | 0.00 | 86 | 1015.1 |
| 20260510060508 | 23 | 123 | 0.0 | 3.2 | 0.00 | 0.00 | 0.00 | 86 | 1015.1 |
| 20260510060023 | 23 | 123 | 0.0 | 0.0 | 0.00 | 0.00 | 0.00 | 85 | 1015.3 |
| 20260510055508 | 23 | 123 | 0.0 | 0.0 | 0.00 | 0.00 | 0.00 | 85 | 1015.3 |
| 20260510055007 | 23 | 123 | 0.0 | 0.0 | 0.00 | 0.00 | 0.00 | 85 | 1015.4 |
| 20260510054524 | 23 | 123 | 0.0 | 0.0 | 0.00 | 0.00 | 0.00 | 85 | 1015.4 |
| 20260510054012 | 23 | 123 | 0.0 | 3.2 | 0.00 | 0.00 | 0.00 | 85 | 1015.5 |
| 20260510053503 | 23 | 123 | 0.0 | 3.2 | 0.00 | 0.00 | 0.00 | 84 | 1015.7 |
| 20260510053013 | 23 | 123 | 0.0 | 4.8 | 0.00 | 0.00 | 0.00 | 84 | 1015.7 |
| 20260510052507 | 23 | 123 | 1.6 | 4.8 | 0.00 | 0.00 | 0.00 | 84 | 1015.7 |
| 20260510052007 | 23 | 115 | 1.6 | 4.8 | 0.00 | 0.00 | 0.00 | 84 | 1015.6 |
| 20260510051521 | 24 | 76 | 0.0 | 3.2 | 0.00 | 0.00 | 0.00 | 84 | 1015.8 |
| 20260510051007 | 24 | 73 | 0.0 | 4.8 | 0.00 | 0.00 | 0.00 | 84 | 1015.8 |
| 20260510050504 | 24 | 78 | 0.0 | 6.4 | 0.00 | 0.00 | 0.00 | 84 | 1015.7 |
| 20260510050016 | 24 | 104 | 3.2 | 6.4 | 0.00 | 0.00 | 0.00 | 83 | 1015.7 |
| 20260510045510 | 24 | 133 | 0.0 | 3.2 | 0.00 | 0.00 | 0.00 | 82 | 1015.8 |
| 20260510045011 | 24 | 133 | 0.0 | 3.2 | 0.00 | 0.00 | 0.00 | 82 | 1015.8 |
| 20260510044514 | 24 | 133 | 0.0 | 3.2 | 0.00 | 0.00 | 0.00 | 82 | 1015.9 |
| 20260510043509 | 25 | 95 | 0.0 | 3.2 | 0.00 | 0.00 | 0.00 | 81 | 1015.8 |
| 20260510043024 | 25 | 95 | 0.0 | 3.2 | 0.00 | 0.00 | 0.00 | 81 | 1016.0 |
| 20260510042503 | 25 | 93 | 0.0 | 3.2 | 0.00 | 0.00 | 0.00 | 81 | 1016.0 |
| 20260510042004 | 25 | 93 | 0.0 | 3.2 | 0.00 | 0.00 | 0.00 | 80 | 1016.0 |
| 20260510041519 | 25 | 90 | 0.0 | 4.8 | 0.00 | 0.00 | 0.00 | 80 | 1016.1 |
| 20260510041005 | 25 | 88 | 1.6 | 6.4 | 0.00 | 0.00 | 0.00 | 81 | 1015.9 |
| 20260510040509 | 25 | 65 | 1.6 | 6.4 | 0.00 | 0.00 | 0.00 | 80 | 1016.1 |
| 20260510040020 | 25 | 93 | 1.6 | 6.4 | 0.00 | 0.00 | 0.00 | 79 | 1016.0 |
| 20260510035507 | 25 | 79 | 1.6 | 4.8 | 0.00 | 0.00 | 0.00 | 79 | 1016.0 |
| 20260510035004 | 25 | 93 | 0.0 | 3.2 | 0.00 | 0.00 | 0.00 | 79 | 1016.0 |
| 20260510034524 | 26 | 34 | 0.0 | 3.2 | 0.00 | 0.00 | 0.00 | 78 | 1015.9 |
| 20260510034009 | 26 | 34 | 0.0 | 4.8 | 0.00 | 0.00 | 0.00 | 78 | 1016.0 |
| 20260510033511 | 26 | 34 | 0.0 | 4.8 | 0.00 | 0.00 | 0.00 | 77 | 1016.0 |
| 20260510033020 | 26 | 352 | 0.0 | 6.4 | 0.00 | 0.00 | 0.00 | 77 | 1016.0 |
| 20260510032507 | 26 | 13 | 3.2 | 6.4 | 0.00 | 0.00 | 0.00 | 77 | 1015.8 |
| 20260510032012 | 26 | 352 | 0.0 | 6.4 | 0.00 | 0.00 | 0.00 | 77 | 1016.2 |
| 20260510031004 | 26 | 54 | 1.6 | 8.0 | 0.00 | 0.00 | 0.00 | 76 | 1016.0 |
| 20260510030507 | 26 | 24 | 4.8 | 9.7 | 0.00 | 0.00 | 0.00 | 76 | 1016.0 |
| 20260510030032 | 26 | 28 | 4.8 | 9.7 | 0.00 | 0.00 | 0.00 | 76 | 1015.8 |
| 20260510025509 | 26 | 26 | 1.6 | 11.3 | 0.00 | 0.00 | 0.00 | 75 | 1015.9 |
| 20260510025009 | 26 | 27 | 3.2 | 11.3 | 0.00 | 0.00 | 0.00 | 75 | 1015.9 |
| 20260510024526 | 27 | 12 | 1.6 | 11.3 | 0.00 | 0.00 | 0.00 | 75 | 1015.8 |
| 20260510024005 | 27 | 42 | 4.8 | 11.3 | 0.00 | 0.00 | 0.00 | 74 | 1015.7 |
| 20260510023512 | 27 | 41 | 1.6 | 6.4 | 0.00 | 0.00 | 0.00 | 73 | 1015.7 |
| 20260510023026 | 27 | 360 | 0.0 | 8.0 | 0.00 | 0.00 | 0.00 | 72 | 1015.6 |
| 20260510022511 | 27 | 350 | 3.2 | 8.0 | 0.00 | 0.00 | 0.00 | 71 | 1015.5 |
| 20260510022008 | 27 | 29 | 1.6 | 14.5 | 0.00 | 0.00 | 0.00 | 70 | 1015.6 |
| 20260510021528 | 27 | 13 | 6.4 | 14.5 | 0.00 | 0.00 | 0.00 | 70 | 1015.5 |
| 20260510021008 | 27 | 12 | 1.6 | 12.9 | 0.00 | 0.00 | 0.00 | 64 | 1015.5 |
| 20260510020503 | 27 | 9 | 4.8 | 12.9 | 0.00 | 0.00 | 0.00 | 67 | 1015.5 |
| 20260510020025 | 27 | 360 | 3.2 | 8.0 | 0.00 | 0.00 | 0.00 | 72 | 1015.6 |
| 20260510015505 | 27 | 296 | 3.2 | 8.0 | 0.00 | 0.00 | 0.00 | 72 | 1015.6 |
| 20260510015006 | 27 | 333 | 4.8 | 9.7 | 0.00 | 0.00 | 0.00 | 73 | 1015.4 |
| 20260510014010 | 27 | 293 | 1.6 | 9.7 | 0.00 | 0.00 | 0.00 | 72 | 1015.2 |
| 20260510013512 | 27 | 284 | 3.2 | 9.7 | 0.00 | 0.00 | 0.00 | 72 | 1015.1 |
| 20260510013024 | 27 | 300 | 1.6 | 8.0 | 0.00 | 0.00 | 0.00 | 72 | 1015.0 |
| 20260510012509 | 27 | 323 | 3.2 | 12.9 | 0.00 | 0.00 | 0.00 | 71 | 1014.8 |
| 20260510012008 | 27 | 257 | 3.2 | 12.9 | 0.00 | 0.00 | 0.00 | 70 | 1014.6 |
| 20260510011525 | 27 | 248 | 1.6 | 11.3 | 0.00 | 0.00 | 0.00 | 70 | 1014.6 |
| 20260510011008 | 27 | 288 | 1.6 | 16.1 | 0.00 | 0.00 | 0.00 | 69 | 1014.6 |
| 20260510010507 | 28 | 247 | 3.2 | 16.1 | 0.00 | 0.00 | 0.00 | 68 | 1014.5 |
| 20260510010026 | 28 | 246 | 3.2 | 14.5 | 0.00 | 0.00 | 0.00 | 68 | 1014.4 |
| 20260510005512 | 28 | 297 | 6.4 | 14.5 | 0.00 | 0.00 | 0.00 | 66 | 1014.3 |
| 20260510004517 | 28 | 286 | 1.6 | 12.9 | 0.00 | 0.00 | 0.00 | 62 | 1014.1 |
| 20260510004004 | 28 | 337 | 6.4 | 16.1 | 0.00 | 0.00 | 0.00 | 61 | 1014.0 |
| 20260510003508 | 28 | 311 | 0.0 | 16.1 | 0.00 | 0.00 | 0.00 | 60 | 1014.0 |
| 20260510003013 | 28 | 264 | 4.8 | 16.1 | 0.00 | 0.00 | 0.00 | 60 | 1013.8 |
| 20260510002504 | 28 | 271 | 1.6 | 11.3 | 0.00 | 0.00 | 0.00 | 59 | 1013.7 |
| 20260510002003 | 28 | 255 | 4.8 | 14.5 | 0.00 | 0.00 | 0.00 | 59 | 1013.7 |
| 20260510001004 | 29 | 257 | 3.2 | 17.7 | 0.00 | 0.00 | 0.00 | 59 | 1013.5 |
| 20260510000504 | 29 | 308 | 8.0 | 17.7 | 0.00 | 0.00 | 0.00 | 57 | 1013.4 |
| 20260509235505 | 30 | 273 | 8.0 | 16.1 | 0.00 | 0.00 | 0.00 | 57 | 1013.4 |
| 20260509235004 | 30 | 275 | 8.0 | 14.5 | 0.00 | 0.00 | 0.00 | 57 | 1013.4 |